Regional Weather Roundup
Issued by NWS

Home | Current Version | Previous Version | Text Only | Print | Product List | Glossary Off
Versions: 1 2 3 4 5 6 7 8 9 10 11 12 13 14 15 16 17 18 19 20 21 22 23 24 25 26 27 28 29 30 31 32 33 34 35 36 37 38 39 40 41 42 43 44 45 46 47 48 49 50

000
ASUS43 KDMX 200801
RWRIA

WEATHER ROUNDUP FOR IOWA
NATIONAL WEATHER SERVICE DES MOINES IA
200 AM CST MON FEB 20 2017

NOTE: "FAIR" INDICATES FEW OR NO CLOUDS BELOW 12,000 FEET WITH NO
SIGNIFICANT WEATHER AND/OR OBSTRUCTIONS TO VISIBILITY.

* - THESE STATIONS ARE NOT NWS STATIONS...THUS NOT UNDER NWS
QUALITY CONTROL.  THEY ALSO DO NOT REPORT WEATHER SUCH
AS PRECIPITATION OR FOG.

IAZ001>003-012>014-020>022-031>034-043>046-200900-
   NORTHWEST IOWA

CITY           SKY/WX    TMP DP  RH WIND       PRES   REMARKS
CARROLL *      CLOUDY    48  48 100 CALM      29.82F
CHEROKEE *     MOCLDY    52  51  97 S8        29.78F
DENISON *      CLOUDY    55  52  88 S17G23    29.77F
LE MARS *      CLOUDY    54  52  94 S9        29.77S
SHELDON *      CLOUDY    52  52 100 SE12      29.74F
SIOUX CITY     CLOUDY    54  51  90 SE7       29.74F
SPENCER        CLOUDY    51  47  86 SE13      29.79F
STORM LAKE *   CLOUDY    50  48  93 SE13      29.80F
$$

IAZ055>058-069>071-079>083-090>094-200900-
   SOUTHWEST IOWA

CITY           SKY/WX    TMP DP  RH WIND       PRES   REMARKS
ATLANTIC *     MOCLDY    54  52  94 S5        29.82F
CLARINDA *       N/A     52  50  93 CALM      29.86S
COUNCIL BLFS *   N/A     55  55 100 SE12      29.80S
CRESTON *      CLOUDY    55  48  76 SE10      29.87F
HARLAN  *      CLOUDY    54  54 100 S7        29.84F
LAMONI         CLOUDY    57  48  72 SE6       29.88S
RED OAK *      CLOUDY    52  52 100 S5        29.83S
SHENANDOAH *   CLOUDY    55  52  88 SE8       29.83F
$$

IAZ047>049-059>061-072>074-084-200900-
   CENTRAL IOWA

CITY           SKY/WX    TMP DP  RH WIND       PRES   REMARKS
AMES           MOCLDY    50  47  89 SE6       29.88S
ANKENY *       CLOUDY    57  48  72 SE9       29.89S
BOONE *        MOCLDY    48  46  93 SE10      29.86F
CHARITON *     CLOUDY    59  50  72 S13       29.89F
DES MOINES     CLOUDY    60  47  61 SE9       29.88F
GRINNELL*      CLOUDY    52  47  81 SE7       29.94S
KNOXVILLE *    MOCLDY    59  48  67 SE9       29.89F
MARSHALLTOWN   CLOUDY    53  47  79 SE13      29.91S
NEWTON *       MOCLDY    52  46  82 SE10      29.90F
PELLA *        CLOUDY    57  47  69 SE9       29.92F
PERRY *          N/A     47  43  88 E7        29.86F
$$

IAZ004>006-015-016-023>025-035-036-200900-
   NORTH CENTRAL IOWA

CITY           SKY/WX    TMP DP  RH WIND       PRES   REMARKS
ALGONA *       CLOUDY    52  46  82 SE15      29.84F
CLARION *      CLOUDY    50  48  93 SE15      29.87S
ESTHERVILLE    CLOUDY    50  47  89 S16       29.80F
FORT DODGE *   CLOUDY    55  45  67 SE10      29.86F
MASON CITY     CLOUDY    48  43  82 SE15      29.90S
FOREST CITY *    N/A     46  43  87 SE8       29.88S
IOWA FALLS *     N/A     50  45  84 SE9       29.90F
$$

IAZ007>011-017>019-026>030-037>042-050>054-066-200900-
   NORTHEAST IOWA

CITY           SKY/WX    TMP DP  RH WIND       PRES   REMARKS
CEDAR RAPIDS   PTCLDY    53  49  86 SE9       29.95F
CHARLES CITY * CLOUDY    50  46  87 SE13      29.92F
CLINTON *      PTCLDY    51  47  86 SE13      30.03R
DECORAH *      CLOUDY    48  43  81 SE13G18   29.95S
DUBUQUE        CLOUDY    50  44  80 SE12      30.01S
MONTICELLO *   CLOUDY    52  45  76 SE9       29.99S
OELWEIN *      CLOUDY    50  46  87 SE14      29.96S
WATERLOO       CLOUDY    53  45  74 SE13      29.93S
$$

IAZ064-065-067-068-078-200900-
   EAST CENTRAL IOWA

CITY           SKY/WX    TMP DP  RH WIND       PRES   REMARKS
DAVENPORT      CLOUDY    53  48  83 SE13      30.02S
IOWA CITY      CLOUDY    51  46  83 SE8       29.98F
MUSCATINE *    CLOUDY    54  48  82 SE8       30.00S
QUAD CITIES    CLOUDY    52  46  80 E5        30.01R
$$

IAZ062-063-075>077-085>089-095>099-200900-
   SOUTHEAST IOWA

CITY           SKY/WX    TMP DP  RH WIND       PRES   REMARKS
BURLINGTON     CLOUDY    55  51  86 S10       30.00R
FAIRFIELD *    CLOUDY    55  48  76 SE10      29.95F
KEOKUK *       CLOUDY    55  50  82 SE8       29.98R
OTTUMWA        PTCLDY    59  51  75 S13       29.93F
WASHINGTON *   CLOUDY    52  50  93 SE10      29.98S
$$

ABBREVIATIONS USED IN REMARKS
   TC - TEMPERATURES IN CELSIUS
  WCI - WIND CHILL INDEX
   HX - HEAT INDEX
  VSB - VISIBILITY
$$





USA.gov is the U.S. government's official web portal to all federal, state and local government web resources and services.